Torna al catalogo

GALS 2

AttivoComunicazioniGEO
NORAD 23717·PAYLOAD·🇷🇺 Russia

Lanciato Nov 17, 1995 da Baikonur Cosmodrome

Loading…

TLE

AggiornatoSource: Space-Track

Epoca: Sep 14, 2026, 10:43 UTC

1 23717U 95063A   26257.44676791  .00000017  00000-0  00000-0 0  9997
2 23717  14.5101   1.9100 0006402 314.5423  78.1390  0.99878552112521

Traccia GALS 2 in tempo reale con AllMySat

Download on the App Store